Weather History for Manassas, VA

Change the Weather History Date:

Monday, October 8, 2012

  Actual Average Record
Temperature  
Mean Temperature 43 °F -  
Max Temperature 51 °F 68 °F 91 °F (2007)
Min Temperature 35 °F 44 °F 26 °F (2001)
Degree Days  
Heating Degree Days 22    
Moisture  
Dew Point 41 °F    
Average Humidity 92    
Maximum Humidity 100    
Minimum Humidity 67    
Precipitation  
Precipitation 0.00 in - - ()
Sea Level Pressure  
Sea Level Pressure 30.23 in    
Wind  
Wind Speed 3 mph (North)    
Max Wind Speed 9 mph    
Max Gust Speed -    
Visibility 6 miles    
Events      
Averages and records for this station are not official NWS values.
T = Trace of Precipitation, MM = Missing Value Source: NWS Daily Summary

Daily Weather History Graph

Daily Weather History Graph

Search for Another Location

Airport:

Trip Planner

Search our weather history database for the weather conditions in past years. The results will help you decide how hot, cold, wet, or windy it might be!

Date:

Astronomy

Oct. 08, 2012 Rise Set
Actual Time 7:12 AM EDT 6:41 PM EDT
Civil Twilight 6:46 AM EDT 7:07 PM EDT
Nautical Twilight 6:15 AM EDT 7:38 PM EDT
Astronomical Twilight 5:44 AM EDT 8:09 PM EDT
Moon No Moon Rise 2:25 PM EDT (10/8)
Length of Visible Light 12h 21m
Length of Day
11h 28m
Waning Gibbous, 46% of the Moon is Illuminated
Oct 8
Waning Gibbous
Oct 15
New
Oct 21
First Quarter
Oct 29
Full
Nov 6
Last Quarter

Hourly Weather History & Observations

Time (EDT) Temp. Windchill Dew Point Humidity Pressure Visibility Wind Dir Wind Speed Gust Speed Precip Events Conditions
12:15 AM 41.0 °F 38.0 °F 41.0 °F 100% 30.20 in 0.2 mi SSE 4.6 mph - N/A   Overcast
12:35 AM 41.0 °F - 41.0 °F 100% 30.20 in 0.5 mi Calm Calm - N/A   Overcast
12:55 AM 41.0 °F - 41.0 °F 100% 30.20 in 0.2 mi Calm Calm - N/A   Overcast
1:15 AM 41.0 °F - 39.2 °F 93% 30.21 in 0.5 mi Calm Calm - N/A   Overcast
1:35 AM 41.0 °F - 39.2 °F 93% 30.21 in 0.5 mi Calm Calm - N/A   Mostly Cloudy
1:55 AM 39.2 °F - 39.2 °F 100% 30.21 in 2.0 mi Calm Calm - N/A   Scattered Clouds
2:15 AM 39.2 °F - 39.2 °F 100% 30.21 in 1.0 mi Calm Calm - N/A   Clear
2:35 AM 37.4 °F 32.8 °F 37.4 °F 100% 30.21 in 0.5 mi SSE 5.8 mph - N/A   Overcast
2:55 AM 37.4 °F - 37.4 °F 100% 30.21 in 0.8 mi Calm Calm - N/A   Mostly Cloudy
3:15 AM 37.4 °F - 37.4 °F 100% 30.20 in 0.2 mi Calm Calm - N/A   Overcast
3:35 AM 39.2 °F - 39.2 °F 100% 30.21 in 0.8 mi Calm Calm - N/A   Mostly Cloudy
3:55 AM 39.2 °F - 39.2 °F 100% 30.20 in 0.8 mi Calm Calm - N/A   Unknown
4:15 AM 37.4 °F - 37.4 °F 100% 30.20 in 6.0 mi Calm Calm - N/A   Clear
4:35 AM 37.4 °F - 37.4 °F 100% 30.22 in 3.0 mi Calm Calm - N/A   Clear
4:55 AM 35.6 °F - 35.6 °F 100% 30.22 in 1.5 mi Calm Calm - N/A   Clear
5:15 AM 35.6 °F - 35.6 °F 100% 30.23 in 2.5 mi Calm Calm - N/A   Clear
5:35 AM 39.2 °F - 39.2 °F 100% 30.22 in 6.0 mi Calm Calm - N/A   Clear
5:55 AM 39.2 °F 37.0 °F 39.2 °F 100% 30.24 in 5.0 mi South 3.5 mph - N/A   Clear
6:15 AM 39.2 °F - 39.2 °F 100% 30.23 in 9.0 mi Calm Calm - N/A   Clear
7:45 AM 42.8 °F 41.1 °F 42.8 °F 100% 30.26 in 10.0 mi North 3.5 mph - N/A   Clear
8:50 AM 44.6 °F 41.4 °F 42.8 °F 93% 30.28 in 10.0 mi NNE 5.8 mph - N/A   Clear
10:50 AM 46.4 °F 44.3 °F 44.6 °F 93% 30.29 in 10.0 mi NNE 4.6 mph - N/A   Clear
11:50 AM 50.0 °F - 42.8 °F 76% 30.31 in 10.0 mi NNE 3.5 mph - N/A   Mostly Cloudy
12:45 PM 51.8 °F - 41.0 °F 67% 30.30 in 10.0 mi East 3.5 mph - N/A   Mostly Cloudy
2:45 PM 51.8 °F - 41.0 °F 67% 30.28 in 10.0 mi North 8.1 mph - N/A   Mostly Cloudy
4:45 PM 51.8 °F - 42.8 °F 71% 30.25 in 10.0 mi North 9.2 mph - N/A   Overcast
5:45 PM 50.0 °F - 42.8 °F 76% 30.23 in 10.0 mi NNE 9.2 mph - N/A   Overcast
6:45 PM 48.2 °F - 42.8 °F 82% 30.24 in 10.0 mi North 6.9 mph - N/A   Overcast
7:15 PM 48.2 °F - 42.8 °F 82% 30.23 in 10.0 mi North 6.9 mph - N/A   Overcast
7:35 PM 48.2 °F - 42.8 °F 82% 30.24 in 10.0 mi North 3.5 mph - N/A   Overcast
7:55 PM 48.2 °F - 42.8 °F 82% 30.23 in 10.0 mi North 6.9 mph - N/A   Overcast
8:15 PM 46.4 °F 44.3 °F 44.6 °F 93% 30.24 in 10.0 mi North 4.6 mph - N/A   Overcast
8:35 PM 46.4 °F 43.5 °F 44.6 °F 93% 30.23 in 10.0 mi North 5.8 mph - N/A   Overcast
8:55 PM 46.4 °F 43.5 °F 44.6 °F 93% 30.23 in 10.0 mi NNW 5.8 mph - N/A   Overcast
9:15 PM 46.4 °F 42.9 °F 44.6 °F 93% 30.23 in 10.0 mi NNW 6.9 mph - N/A   Overcast
9:35 PM 46.4 °F 42.9 °F 44.6 °F 93% 30.23 in 10.0 mi NNW 6.9 mph - N/A   Overcast
9:55 PM 46.4 °F 41.9 °F 44.6 °F 93% 30.23 in 10.0 mi NNW 9.2 mph - N/A   Overcast
10:15 PM 46.4 °F 42.9 °F 44.6 °F 93% 30.24 in 10.0 mi NNW 6.9 mph - N/A   Overcast
10:35 PM 46.4 °F 42.9 °F 44.6 °F 93% 30.23 in 10.0 mi NNW 6.9 mph - N/A   Overcast
10:55 PM 46.4 °F 42.9 °F 44.6 °F 93% 30.23 in 10.0 mi North 6.9 mph - N/A   Overcast
11:15 PM 46.4 °F 43.5 °F 44.6 °F 93% 30.23 in 10.0 mi North 5.8 mph - N/A   Overcast
11:55 PM 46.4 °F 44.3 °F 44.6 °F 93% 30.23 in 10.0 mi NNW 4.6 mph - N/A   Overcast